Location: Newark
(7.0858°N, 171.3717°E)
Time: 17:32:45
(UTC+00:00)

Transit 2A - Pass Details

Date: 30 November 2020
Orbit: 598 x 960 km, 66.7° (Epoch: 20 January)

Event Time Altitude Azimuth Distance (km) Brightness Sun altitude
Rises 04:36:07 0° 208° (SSW) 3,557 10.3 21.7°
Reaches altitude 10° 04:38:39 10° 212° (SSW) 2,644 9.9 21.1°
Maximum altitude 04:44:46 58° 290° (WNW) 1,103 7.5 19.8°
Drops below altitude 10° 04:50:58 10° 9° (N) 2,672 8.5 18.4°
Sets 04:53:33 0° 13° (NNE) 3,598 9.1 17.8°
